IUS DEB, 43363

Orbit data source: Space-Track

IUS DEB, 43363 is space debris in LEO originally from a launch on Fri, 23 Jul 1999 UTC launched from the Air Force Eastern Test Range (AFETR). Debris objects in space refer to the collection of defunct objects orbiting the Earth. Examples of debris include non-operational satellites, rocket bodies, and fragments generated from explosions, collisions, or faulty payload assembly.

Loading next visibility...
Identifier
43363, 1999-040L
Orbit
LEO
Last TLE update
11 months ago
Origin
Manufacturer
Boeing/Kent
Mission
Spacecraft
Bus & Motor
Unknown
Mass
Unknown
Launch date (UTC)
1999-07-23 (26 years ago)
Launch vehicle
Unknown
Launch site
Air Force Eastern Test Range (AFETR)
Object type
Payload
Rocket body
Debris
Shape & HBR
Unknown
Radar Cross Section
Small (<0.1 m²)

Expand to show TLE details & history

TLE from 11 months ago
0 IUS DEB
1 43363U 99040L   24207.46150719  .00070672  00000-0  59772-1 0  9992
2 43363  28.2626 265.9531 2342506 219.5053 120.9151 10.05846354  3126
Epoch: 2024-07-25T11:04Z
TLE epoch observation values (Epoch: 2024-07-25T11:04:34.221Z)
Latitude
-0°
Longitude
156.15964°
Altitude
4,079.5 km
Speed
5.682 km/s
True Right ascension
17h 43m 48s
True Declination
0° 00' 00"
Sunlit
Object was in daylight at epoch
Visualization orbit readout
Latitude
-17.12776°
Longitude
37.38775°
Altitude
4,020.653 km
Speed
5.546 km/s
Apparent Right ascension
09h 22m 02s
Apparent Declination
-25° 57' 03"
Sunlit
Object is in daylight
Visualization observer readout
Local Sidereal Time
20:27:30
Azimuth
316.72° NNW
Elevation
-71.991°
Doppler factor
1
Orbital elements
Apogee altitude
4,815.017 km
Perigee altitude
566.28 km
Semi-major axis
9,068.786 km
Eccentricity
0.23425
Inclination
28.2626°
RAAN
265.9531°
Arg. of periapsis
219.5053°
True anomaly
Unknown
Mean anomaly
120.9151°
Eccentric anomaly
Unknown
Mean motion
2.51316 °/min
Orbital period
143.25 mins
BSTAR
0.059772
Loading maneuver chart data...
Loading SW <> Apogee altitude chart data...
Loading historical data...
Loading historical data...
Loading historical data...
Loading historical data...
Loading historical data...
Loading historical data...
Loading historical data...

IUS DEB Visibility forecast

Observer location: undefined°, undefined°

Span
Click to sort rows by Start time (UTC) header in descending order
Start Az.
Max El. time (UTC)
Max El. Az.
Max El.
End time (UTC)
End Az.
8 mins2025-07-08 14:15:47.738Z208.815° SW2025-07-08 14:17:47.738Z176.319° S22.914°2025-07-08 14:23:47.738Z125.449° SE
12 mins2025-07-08 16:36:47.738Z222.463° SW2025-07-08 16:40:47.738Z187.059° SSW20.381°2025-07-08 16:48:47.738Z147.943° SSE
4 mins2025-07-08 19:03:47.738Z206.846° SW2025-07-08 19:04:47.738Z202.667° SW10.977°2025-07-08 19:07:47.738Z191.333° SSW
|